Holland, IN

7:54 AM EST on December 09, 2016 (GMT -0500)
Huntingburg

Weather History for KHNB - February, 2012

Change the Weather History Date:

Monday, February 27, 2012

  Actual Average Record
Temperature  
Mean Temperature 50 °F -  
Max Temperature 57 °F 45 °F 62 °F (1997)
Min Temperature 42 °F 30 °F 6 °F (2015)
Degree Days  
Heating Degree Days 16    
Moisture  
Dew Point 28 °F    
Average Humidity 44    
Maximum Humidity 57    
Minimum Humidity 31    
Precipitation  
Precipitation 0.00 in - - ()
Sea Level Pressure  
Sea Level Pressure 30.32 in    
Wind  
Wind Speed 9 mph (West)    
Max Wind Speed 14 mph    
Max Gust Speed 22 mph    
Visibility 10 miles    
Events      
Averages and records for this station are not official NWS values.
T = Trace of Precipitation, MM = Missing Value Source: NWS Daily Summary

Daily Weather History Graph

Daily Weather History Graph

Search for Another Location

Airport or City:

Trip Planner

Search our weather history database for the weather conditions in past years. The results will help you decide how hot, cold, wet, or windy it might be!

Date:

Astronomy

Feb. 27, 2012 Rise Set
Actual Time 7:23 AM EST 6:38 PM EST
Civil Twilight 6:56 AM EST 7:05 PM EST
Nautical Twilight 6:26 AM EST 7:35 PM EST
Astronomical Twilight 5:55 AM EST 8:06 PM EST
Moon 9:57 AM EST (2/27) No Moon Set
Length of Visible Light 12h 08m
Length of Day
11h 15m
Waxing Crescent, 29% of the Moon is Illuminated
Feb 27
Waxing Crescent
Feb 29
First Quarter
Mar 8
Full
Mar 14
Last Quarter
Mar 22
New

Hourly Weather History & Observations

Time (EST) Temp. Windchill Dew Point Humidity Pressure Visibility Wind Dir Wind Speed Gust Speed Precip Events Conditions
12:15 AM 46.4 °F 41.9 °F 24.8 °F 43% 30.20 in 10.0 mi SSW 9.2 mph - N/A   Clear
12:35 AM 44.6 °F 42.2 °F 24.8 °F 46% 30.22 in 10.0 mi SSW 4.6 mph - N/A   Clear
12:55 AM 44.6 °F 41.4 °F 24.8 °F 46% 30.22 in 10.0 mi South 5.8 mph - N/A   Clear
1:15 AM 44.6 °F 40.7 °F 24.8 °F 46% 30.23 in 10.0 mi South 6.9 mph - N/A   Clear
1:35 AM 42.8 °F 39.3 °F 24.8 °F 49% 30.23 in 10.0 mi SSW 5.8 mph - N/A   Clear
1:55 AM 42.8 °F 38.0 °F 24.8 °F 49% 30.24 in 10.0 mi SSW 8.1 mph - N/A   Clear
2:15 AM 44.6 °F 40.2 °F 24.8 °F 46% 30.24 in 10.0 mi SSW 8.1 mph - N/A   Clear
2:35 AM 44.6 °F 40.2 °F 26.6 °F 49% 30.24 in 10.0 mi SSW 8.1 mph - N/A   Clear
2:55 AM 42.8 °F 39.3 °F 24.8 °F 49% 30.25 in 10.0 mi SSW 5.8 mph - N/A   Clear
3:15 AM 42.8 °F 38.0 °F 26.6 °F 53% 30.24 in 10.0 mi SSW 8.1 mph - N/A   Clear
3:35 AM 44.6 °F 39.7 °F 26.6 °F 49% 30.24 in 10.0 mi South 9.2 mph - N/A   Clear
3:55 AM 42.8 °F 37.5 °F 26.6 °F 53% 30.24 in 10.0 mi SSW 9.2 mph - N/A   Clear
4:15 AM 44.6 °F 39.2 °F 26.6 °F 49% 30.24 in 10.0 mi SSW 10.4 mph - N/A   Clear
4:35 AM 44.6 °F 40.2 °F 26.6 °F 49% 30.24 in 10.0 mi SSW 8.1 mph - N/A   Clear
4:55 AM 44.6 °F 39.2 °F 26.6 °F 49% 30.24 in 10.0 mi SW 10.4 mph - N/A   Clear
5:15 AM 44.6 °F 39.2 °F 26.6 °F 49% 30.25 in 10.0 mi SSW 10.4 mph - N/A   Clear
5:35 AM 44.6 °F 39.7 °F 26.6 °F 49% 30.25 in 10.0 mi SSW 9.2 mph - N/A   Clear
5:55 AM 44.6 °F 39.7 °F 26.6 °F 49% 30.25 in 10.0 mi SSW 9.2 mph - N/A   Clear
6:15 AM 44.6 °F 39.2 °F 26.6 °F 49% 30.26 in 10.0 mi SSW 10.4 mph - N/A   Clear
6:35 AM 44.6 °F 39.2 °F 28.4 °F 53% 30.26 in 10.0 mi SSW 10.4 mph - N/A   Clear
6:55 AM 44.6 °F 38.8 °F 28.4 °F 53% 30.26 in 10.0 mi SSW 11.5 mph - N/A   Clear
7:15 AM 44.6 °F 39.2 °F 28.4 °F 53% 30.27 in 10.0 mi SW 10.4 mph - N/A   Clear
7:35 AM 42.8 °F 37.5 °F 28.4 °F 57% 30.28 in 10.0 mi SW 9.2 mph - N/A   Clear
7:55 AM 42.8 °F 37.5 °F 28.4 °F 57% 30.29 in 10.0 mi SSW 9.2 mph - N/A   Clear
8:15 AM 44.6 °F 40.2 °F 30.2 °F 57% 30.29 in 10.0 mi SW 8.1 mph - N/A   Clear
8:35 AM 46.4 °F 42.4 °F 30.2 °F 53% 30.31 in 10.0 mi SW 8.1 mph - N/A   Clear
8:55 AM 48.2 °F - 30.2 °F 50% 30.32 in 10.0 mi WSW 8.1 mph - N/A   Clear
9:15 AM 48.2 °F - 32.0 °F 54% 30.34 in 10.0 mi West 9.2 mph - N/A   Clear
9:35 AM 51.8 °F - 32.0 °F 47% 30.34 in 10.0 mi West 9.2 mph - N/A   Clear
9:55 AM 51.8 °F - 32.0 °F 47% 30.35 in 10.0 mi NW 13.8 mph 21.9 mph N/A   Clear
10:15 AM 53.6 °F - 33.8 °F 47% 30.36 in 10.0 mi NW 11.5 mph 17.3 mph N/A   Clear
10:35 AM 53.6 °F - 33.8 °F 47% 30.37 in 10.0 mi NNW 12.7 mph - N/A   Clear
10:55 AM 51.8 °F - 33.8 °F 50% 30.37 in 10.0 mi NNW 13.8 mph - N/A   Clear
11:15 AM 51.8 °F - 33.8 °F 50% 30.38 in 10.0 mi NNW 10.4 mph - N/A   Clear
11:35 AM 53.6 °F - 30.2 °F 41% 30.39 in 10.0 mi NW 13.8 mph - N/A   Clear
11:55 AM 53.6 °F - 28.4 °F 38% 30.40 in 10.0 mi NNW 11.5 mph - N/A   Clear
12:15 PM 53.6 °F - 28.4 °F 38% 30.40 in 10.0 mi NNW 13.8 mph - N/A   Clear
12:35 PM 55.4 °F - 28.4 °F 36% 30.40 in 10.0 mi NNW 8.1 mph - N/A   Clear
12:55 PM 55.4 °F - 30.2 °F 38% 30.40 in 10.0 mi NNW 11.5 mph 16.1 mph N/A   Clear
1:15 PM 55.4 °F - 28.4 °F 36% 30.40 in 10.0 mi NNW 10.4 mph 21.9 mph N/A   Clear
1:35 PM 57.2 °F - 30.2 °F 36% 30.39 in 10.0 mi NNW 10.4 mph 16.1 mph N/A   Clear
1:55 PM 57.2 °F - 30.2 °F 36% 30.39 in 10.0 mi NNW 11.5 mph - N/A   Clear
2:15 PM 55.4 °F - 28.4 °F 36% 30.38 in 10.0 mi NNW 11.5 mph 16.1 mph N/A   Clear
2:35 PM 57.2 °F - 28.4 °F 33% 30.37 in 10.0 mi NW 8.1 mph - N/A   Clear
2:55 PM 57.2 °F - 28.4 °F 33% 30.35 in 10.0 mi North 10.4 mph 16.1 mph N/A   Clear
3:15 PM 57.2 °F - 28.4 °F 33% 30.36 in 10.0 mi North 12.7 mph 16.1 mph N/A   Clear
3:35 PM 57.2 °F - 26.6 °F 31% 30.36 in 10.0 mi NNW 11.5 mph 16.1 mph N/A   Clear
3:55 PM 57.2 °F - 26.6 °F 31% 30.35 in 10.0 mi NW 12.7 mph - N/A   Clear
4:15 PM 57.2 °F - 28.4 °F 33% 30.37 in 10.0 mi NW 12.7 mph 16.1 mph N/A   Clear
4:35 PM 55.4 °F - 26.6 °F 33% 30.36 in 10.0 mi North 9.2 mph - N/A   Clear
4:55 PM 53.6 °F - 24.8 °F 33% 30.37 in 10.0 mi North 6.9 mph - N/A   Clear
5:15 PM 53.6 °F - 26.6 °F 35% 30.36 in 10.0 mi North 10.4 mph - N/A   Clear
5:35 PM 53.6 °F - 24.8 °F 33% 30.39 in 10.0 mi North 9.2 mph - N/A   Clear
5:55 PM 51.8 °F - 24.8 °F 35% 30.40 in 10.0 mi NNW 9.2 mph - N/A   Clear
6:15 PM 51.8 °F - 24.8 °F 35% 30.41 in 10.0 mi North 10.4 mph - N/A   Clear
6:35 PM 48.2 °F - 24.8 °F 40% 30.42 in 10.0 mi North 6.9 mph - N/A   Clear
6:55 PM 46.4 °F 43.5 °F 24.8 °F 43% 30.43 in 10.0 mi North 5.8 mph - N/A   Clear
7:15 PM 46.4 °F 42.9 °F 23.0 °F 40% 30.43 in 10.0 mi North 6.9 mph - N/A   Clear
7:35 PM 44.6 °F 41.4 °F 21.2 °F 39% 30.44 in 10.0 mi North 5.8 mph - N/A   Clear
7:55 PM 44.6 °F 41.4 °F 21.2 °F 39% 30.44 in 10.0 mi North 5.8 mph - N/A   Clear
8:15 PM 44.6 °F 40.7 °F 21.2 °F 39% 30.45 in 10.0 mi North 6.9 mph - N/A   Clear
8:35 PM 42.8 °F 38.0 °F 21.2 °F 42% 30.45 in 10.0 mi North 8.1 mph - N/A   Clear
8:55 PM 42.8 °F 39.3 °F 21.2 °F 42% 30.45 in 10.0 mi North 5.8 mph - N/A   Clear
9:15 PM 41.0 °F 36.4 °F 21.2 °F 45% 30.45 in 10.0 mi NNE 6.9 mph - N/A   Clear
9:35 PM 41.0 °F 37.1 °F 21.2 °F 45% 30.46 in 10.0 mi NNE 5.8 mph - N/A   Clear
9:55 PM 39.2 °F 34.2 °F 21.2 °F 49% 30.46 in 10.0 mi NNE 6.9 mph - N/A   Clear
10:15 PM 39.2 °F 34.2 °F 21.2 °F 49% 30.46 in 10.0 mi NNE 6.9 mph - N/A   Clear
10:35 PM 39.2 °F 35.0 °F 21.2 °F 49% 30.46 in 10.0 mi NE 5.8 mph - N/A   Clear
10:55 PM 39.2 °F 35.9 °F 21.2 °F 49% 30.46 in 10.0 mi NE 4.6 mph - N/A   Clear
11:15 PM 39.2 °F 37.0 °F 21.2 °F 49% 30.46 in 10.0 mi NE 3.5 mph - N/A   Partly Cloudy
11:35 PM 37.4 °F 33.8 °F 21.2 °F 52% 30.46 in 10.0 mi North 4.6 mph - N/A   Partly Cloudy
11:55 PM 33.8 °F 29.6 °F 24.8 °F 70% 30.46 in 10.0 mi North 4.6 mph - N/A   Clear